Boone, IA

12:48 PM CDT on May 22, 2017 (GMT -0500)
Boone Municipal

Weather History for KBNW - May, 2014

Change the Weather History Date:

Monday, May 5, 2014

  Actual Average Record
Temperature  
Mean Temperature 56 °F -  
Max Temperature 69 °F 71 °F 90 °F (1962)
Min Temperature 44 °F 45 °F 32 °F (1954)
Degree Days  
Heating Degree Days 8    
Growing Degree Days 6 (Base 50)    
Moisture  
Dew Point 37 °F    
Average Humidity 48    
Maximum Humidity 71    
Minimum Humidity 34    
Precipitation  
Precipitation 0.00 in - - ()
Sea Level Pressure  
Sea Level Pressure 29.86 in    
Wind  
Wind Speed 13 mph (East)    
Max Wind Speed 20 mph    
Max Gust Speed 24 mph    
Visibility 10 miles    
Events      
Averages and records for this station are not official NWS values.
T = Trace of Precipitation, MM = Missing Value Source: NWS Daily Summary

Daily Weather History Graph

Daily Weather History Graph

Search for Another Location

Airport or City:

Trip Planner

Search our weather history database for the weather conditions in past years. The results will help you decide how hot, cold, wet, or windy it might be!

Date:

Astronomy

May. 05, 2014 Rise Set
Actual Time 6:06 AM CDT 8:18 PM CDT
Civil Twilight 5:35 AM CDT 8:49 PM CDT
Nautical Twilight 4:57 AM CDT 9:27 PM CDT
Astronomical Twilight 4:15 AM CDT 10:10 PM CDT
Moon 11:26 AM CDT (5/5) 1:03 AM CDT (5/5)
Length of Visible Light 15h 14m
Length of Day
14h 12m
Waxing Crescent, 37% of the Moon is Illuminated
May 5
Waxing Crescent
May 6
First Quarter
May 14
Full
May 21
Last Quarter
May 28
New

Hourly Weather History & Observations

Time (CDT) Temp. Windchill Dew Point Humidity Pressure Visibility Wind Dir Wind Speed Gust Speed Precip Events Conditions
12:15 AM 51.8 °F - 37.4 °F 58% 29.88 in 10.0 mi East 13.8 mph 19.6 mph N/A   Clear
12:35 AM 51.8 °F - 37.4 °F 58% 29.87 in - East 13.8 mph - N/A   Clear
12:55 AM 51.8 °F - 37.4 °F 58% 29.87 in 10.0 mi East 15.0 mph - N/A   Clear
1:15 AM 50.0 °F - 37.4 °F 62% 29.87 in 10.0 mi East 11.5 mph 19.6 mph N/A   Clear
1:35 AM 50.0 °F - 35.6 °F 58% 29.87 in 10.0 mi East 11.5 mph - N/A   Clear
1:55 AM 50.0 °F - 35.6 °F 58% 29.88 in 10.0 mi ENE 9.2 mph - N/A   Clear
2:15 AM 48.2 °F - 35.6 °F 62% 29.86 in 10.0 mi East 11.5 mph - N/A   Partly Cloudy
2:35 AM 48.2 °F - 35.6 °F 62% 29.86 in 10.0 mi ENE 9.2 mph - N/A   Partly Cloudy
2:55 AM 48.2 °F - 37.4 °F 66% 29.86 in 10.0 mi ENE 10.4 mph - N/A   Scattered Clouds
3:15 AM 48.2 °F - 35.6 °F 62% 29.86 in 10.0 mi ENE 9.2 mph - N/A   Scattered Clouds
3:35 AM 46.4 °F 41.9 °F 37.4 °F 71% 29.85 in 10.0 mi ENE 9.2 mph - N/A   Scattered Clouds
3:55 AM 46.4 °F 41.5 °F 35.6 °F 66% 29.86 in 10.0 mi NE 10.4 mph - N/A   Scattered Clouds
4:15 AM 46.4 °F 41.1 °F 35.6 °F 66% 29.86 in 10.0 mi NE 11.5 mph - N/A   Partly Cloudy
4:35 AM 46.4 °F 41.5 °F 35.6 °F 66% 29.87 in 10.0 mi NE 10.4 mph - N/A   Partly Cloudy
4:55 AM 44.6 °F 38.8 °F 35.6 °F 71% 29.86 in 10.0 mi ENE 11.5 mph - N/A   Partly Cloudy
5:15 AM 44.6 °F 38.4 °F 35.6 °F 71% 29.85 in 10.0 mi East 12.7 mph - N/A   Partly Cloudy
5:35 AM 44.6 °F 38.1 °F 35.6 °F 71% 29.84 in 10.0 mi East 13.8 mph - N/A   Clear
5:55 AM 46.4 °F 40.7 °F 33.8 °F 62% 29.85 in 10.0 mi East 12.7 mph - N/A   Clear
6:15 AM 44.6 °F 39.2 °F 32.0 °F 61% 29.85 in 10.0 mi East 10.4 mph 16.1 mph N/A   Clear
6:35 AM 44.6 °F 39.2 °F 35.6 °F 71% 29.85 in 10.0 mi East 10.4 mph - N/A   Clear
6:55 AM 44.6 °F 39.7 °F 35.6 °F 71% 29.86 in 10.0 mi ENE 9.2 mph - N/A   Clear
7:15 AM 46.4 °F 41.5 °F 33.8 °F 62% 29.88 in 10.0 mi ENE 10.4 mph - N/A   Clear
7:35 AM 46.4 °F 40.7 °F 32.0 °F 57% 29.89 in 10.0 mi ENE 12.7 mph - N/A   Clear
7:55 AM 48.2 °F - 32.0 °F 54% 29.89 in 10.0 mi ENE 13.8 mph - N/A   Clear
8:15 AM 48.2 °F - 30.2 °F 50% 29.90 in 10.0 mi ENE 15.0 mph - N/A   Clear
8:35 AM 50.0 °F - 32.0 °F 50% 29.90 in 10.0 mi East 13.8 mph - N/A   Clear
8:55 AM 50.0 °F - 32.0 °F 50% 29.89 in 10.0 mi East 15.0 mph - N/A   Clear
9:15 AM 51.8 °F - 30.2 °F 44% 29.89 in 10.0 mi East 18.4 mph - N/A   Clear
9:35 AM 51.8 °F - 30.2 °F 44% 29.89 in 10.0 mi East 16.1 mph 21.9 mph N/A   Clear
9:55 AM 53.6 °F - 30.2 °F 41% 29.89 in 10.0 mi East 13.8 mph 20.7 mph N/A   Clear
10:15 AM 53.6 °F - 30.2 °F 41% 29.88 in 10.0 mi East 15.0 mph - N/A   Clear
10:35 AM 55.4 °F - 32.0 °F 41% 29.89 in 10.0 mi East 13.8 mph - N/A   Clear
10:55 AM 57.2 °F - 32.0 °F 38% 29.89 in 10.0 mi East 13.8 mph - N/A   Clear
11:15 AM 57.2 °F - 32.0 °F 38% 29.88 in - East 13.8 mph 19.6 mph N/A   Clear
11:35 AM 59.0 °F - 32.0 °F 36% 29.88 in 10.0 mi ENE 17.3 mph - N/A   Clear
11:55 AM 60.8 °F - 33.8 °F 36% 29.88 in 10.0 mi East 15.0 mph 20.7 mph N/A   Clear
12:15 PM 60.8 °F - 33.8 °F 36% 29.88 in 10.0 mi East 16.1 mph 21.9 mph N/A   Clear
12:35 PM 62.6 °F - 33.8 °F 34% 29.86 in 10.0 mi East 16.1 mph 23.0 mph N/A   Clear
12:55 PM 62.6 °F - 35.6 °F 37% 29.86 in 10.0 mi ENE 15.0 mph 21.9 mph N/A   Clear
1:15 PM 62.6 °F - 35.6 °F 37% 29.86 in 10.0 mi East 19.6 mph - N/A   Clear
1:35 PM 64.4 °F - 37.4 °F 37% 29.86 in 10.0 mi East 16.1 mph - N/A   Clear
1:55 PM 64.4 °F - 37.4 °F 37% 29.85 in 10.0 mi East 15.0 mph 24.2 mph N/A   Clear
2:15 PM 66.2 °F - 37.4 °F 35% 29.85 in 10.0 mi East 16.1 mph 24.2 mph N/A   Clear
2:35 PM 66.2 °F - 39.2 °F 37% 29.85 in 10.0 mi East 15.0 mph 24.2 mph N/A   Clear
2:55 PM 66.2 °F - 39.2 °F 37% 29.85 in 10.0 mi East 16.1 mph - N/A   Clear
3:15 PM 68.0 °F - 39.2 °F 35% 29.84 in 10.0 mi East 17.3 mph - N/A   Clear
3:35 PM 68.0 °F - 41.0 °F 37% 29.84 in 10.0 mi East 15.0 mph 20.7 mph N/A   Clear
3:55 PM 68.0 °F - 41.0 °F 37% 29.84 in 10.0 mi ENE 16.1 mph - N/A   Clear
4:15 PM 68.0 °F - 41.0 °F 37% 29.84 in 10.0 mi East 13.8 mph 21.9 mph N/A   Clear
4:35 PM 68.0 °F - 41.0 °F 37% 29.84 in 10.0 mi ESE 16.1 mph 23.0 mph N/A   Clear
4:55 PM 68.0 °F - 41.0 °F 37% 29.84 in 10.0 mi East 16.1 mph 23.0 mph N/A   Clear
5:15 PM 68.0 °F - 41.0 °F 37% 29.83 in 10.0 mi East 15.0 mph 20.7 mph N/A   Clear
5:35 PM 69.8 °F - 41.0 °F 35% 29.83 in 10.0 mi East 12.7 mph - N/A   Clear
5:55 PM 68.0 °F - 41.0 °F 37% 29.83 in 10.0 mi East 17.3 mph - N/A   Clear
6:15 PM 68.0 °F - 41.0 °F 37% 29.83 in 10.0 mi East 17.3 mph - N/A   Clear
6:35 PM 68.0 °F - 41.0 °F 37% 29.83 in 10.0 mi East 16.1 mph 21.9 mph N/A   Clear
6:55 PM 66.2 °F - 41.0 °F 40% 29.83 in 10.0 mi East 16.1 mph - N/A   Clear
7:15 PM 66.2 °F - 41.0 °F 40% 29.84 in 10.0 mi East 15.0 mph - N/A   Clear
7:35 PM 64.4 °F - 41.0 °F 42% 29.84 in 10.0 mi East 16.1 mph - N/A   Clear
7:55 PM 64.4 °F - 41.0 °F 42% 29.84 in 10.0 mi East 15.0 mph - N/A   Clear
8:15 PM 62.6 °F - 41.0 °F 45% 29.84 in 10.0 mi East 13.8 mph - N/A   Clear
8:35 PM 62.6 °F - 39.2 °F 42% 29.85 in 10.0 mi East 13.8 mph - N/A   Clear
8:55 PM 60.8 °F - 39.2 °F 45% 29.85 in 10.0 mi East 15.0 mph - N/A   Clear
9:15 PM 60.8 °F - 39.2 °F 45% 29.85 in 10.0 mi East 15.0 mph - N/A   Clear
9:35 PM 59.0 °F - 39.2 °F 48% 29.85 in 10.0 mi East 15.0 mph - N/A   Clear
9:55 PM 59.0 °F - 37.4 °F 45% 29.86 in 10.0 mi East 16.1 mph - N/A   Clear
10:15 PM 59.0 °F - 37.4 °F 45% 29.86 in 10.0 mi East 17.3 mph - N/A   Clear
10:35 PM 57.2 °F - 37.4 °F 48% 29.87 in 10.0 mi East 13.8 mph - N/A   Clear
10:55 PM 57.2 °F - 37.4 °F 48% 29.87 in 10.0 mi East 17.3 mph - N/A   Clear
11:15 PM 57.2 °F - 37.4 °F 48% 29.86 in 10.0 mi East 16.1 mph - N/A   Clear
11:35 PM 57.2 °F - 37.4 °F 48% 29.86 in 10.0 mi East 16.1 mph 21.9 mph N/A   Clear
11:55 PM 55.4 °F - 37.4 °F 51% 29.86 in 10.0 mi East 12.7 mph - N/A   Clear